Regional Weather Roundup
Issued by NWS

Home | Current Version | Previous Version | Graphics & Text | Print | Product List | Glossary On
Versions: 1 2 3 4 5 6 7 8 9 10 11 12 13 14 15 16 17 18 19 20 21 22 23 24 25 26 27 28 29 30 31 32 33 34 35 36 37 38 39 40 41 42 43 44 45 46 47 48 49 50
000
ASUS43 KFSD 250002
RWRSD

WEATHER ROUNDUP FOR SOUTH DAKOTA
NATIONAL WEATHER SERVICE SIOUX FALLS SD
600 PM CST SAT JAN 24 2015

NOTE: "FAIR" INDICATES FEW OR NO CLOUDS BELOW 12,000 FEET WITH NO
SIGNIFICANT WEATHER AND/OR OBSTRUCTIONS TO VISIBILITY.


SDZ001>005-009-010-012>017-250100-
NORTHWEST AND NORTH CENTRAL SOUTH DAKOTA

CITY           SKY/WX    TMP DP  RH WIND       PRES   REMARKS
BUFFALO          N/A     41  33  73 NW35G46   29.77R
FAITH            N/A     43  34  70 NW33G46   29.74R
MOBRIDGE       CLOUDY    40  36  86 NW23G33   29.61R
$$

SDZ012>016-024>037-041>051-057-063-072>074-250100-
SOUTHWEST AND SOUTH CENTRAL SOUTH DAKOTA

CITY           SKY/WX    TMP DP  RH WIND       PRES   REMARKS
RAPID CTY ARPT PTCLDY    44  29  55 NW31G45   29.82R
PIERRE         CLOUDY    45  34  65 NW29G46   29.64R
CUSTER         PTCLDY    37  22  54 NW18G43   29.85S
PHILIP         MOCLDY    47  34  60 NW30G40   29.73R
PINE RIDGE     CLOUDY    43  34  70 NW13      29.86R
WINNER         LGT RAIN  48  40  73 NW26G51   29.66R
$$

SDZ004>011-016>023-039-040-250100-
NORTHEAST SOUTH DAKOTA

CITY           SKY/WX    TMP DP  RH WIND       PRES   REMARKS
ABERDEEN       LGT RAIN  36  34  92 N8        29.59R
WATERTOWN      MIX PCPN  35  33  92 W3        29.56R FOG
SISSETON         N/A     33  32  96 N7        29.59R WCI  27
$$

SDZ017-020-022-023-036>040-048>070-250100-
SOUTHEAST SOUTH DAKOTA

CITY           SKY/WX    TMP DP  RH WIND       PRES   REMARKS
SIOUX FALLS    CLOUDY    39  33  79 W5        29.57F
HURON          CLOUDY    39  36  89 CALM      29.55F
MITCHELL       CLOUDY    45  35  68 W10       29.57F
YANKTON        CLOUDY    45  34  65 SW9       29.60F
$$

ABBREVIATIONS USED IN REMARKS
   TC - TEMPERATURE IN CELSIUS
  WCI - WIND CHILL INDEX
   HX - HEAT INDEX
  VSB - VISIBILITY



USA.gov is the U.S. government's official web portal to all federal, state and local government web resources and services.